DMSP 5D-2 F13 DEB

基本信息
目录编号:
42305
目录名称:
DMSP 5D-2 F13 DEB
国际标识:
1995-015HX
轨道中心:
EARTH
物体状态:
已陨落(2025-01-03)
发射日期:
1995-03-24 UTC
轨道信息
数据来源: 国际轨道数据
星历时间: 2024-10-12T00:17:48+0800
半长轴: 7155.859km
偏心率: 0.0004376
轨道倾角: 98.703°
近地点辐角: 35.890°
升交点赤经: 309.992°
平近点角: 324.258°
近地点: 774.592km
远地点: 780.856km
周期: 100.404分钟
每日圈数: 14.342015
详细信息
发射场:
AFWTR
轨道高度:
LEO
数据来源:
AOE Integration Group
参考系:
TEME
时间系统:
UTC
历元类型:
SGP4
2D轨道图
3D轨道图
轨道高度分析图
轨道倾角分析图
轨道综合分析图
查看轨道综合分析图